Location: Shannon
(40.5500°S, 175.4167°E)
Time: 21:14:17
(UTC+00:00)

Meteor 1-24 Rocket - Pass Details

Date: 17 November 2025
Orbit: 788 x 926 km, 81.3° (Epoch: 06 December)

Event Time Altitude Azimuth Distance (km) Brightness Sun altitude
Rises 15:22:51 0° 196° (SSW) 3,610 7.3 -14.4°
Reaches altitude 10° 15:25:26 10° 200° (SSW) 2,660 6.6 -14.1°
Maximum altitude 15:31:16 49° 273° (W) 1,184 4.1 -13.2°
Drops below altitude 10° 15:36:58 10° 346° (NNW) 2,591 5.8 -12.4°
Enters shadow 15:37:15 - 347° (NNW) 2,698 5.9 -12.4°
